Simultaneous Nadir Overpasses (SNOs) Predictions

Prediction of SNOs between AQUA and METOP-A Satellite Orbit:

Table of predicted SNOs for the next 14.0 days since TLE Epoch: 11/17/2018
Index Date (AQUA) Time (AQUA) Lat,Lon (AQUA) SZA (AQUA ) Date (METOP-A) Time (METOP-A) Lat,Lon (METOP-A) SZA (METOP-A ) Distance(km) Time Diff (sec)
1 11/17/2018 07:35:07 -74.63,-121.38 86.44 11/17/2018 07:33:56 -74.63,-121.40 86.44 0.81 71
2 11/17/2018 08:24:35 74.69, 46.11 93.64 11/17/2018 08:24:35 74.67, 46.05 93.62 2.93 0
3 11/17/2018 09:14:02 -74.73,-146.34 86.32 11/17/2018 09:15:15 -74.74,-146.43 86.31 3.02 73
4 11/20/2018 03:09:23 -74.64, -54.98 85.76 11/20/2018 03:08:11 -74.65, -54.92 85.74 2.07 72
5 11/20/2018 03:58:51 74.71, 112.51 94.32 11/20/2018 03:58:50 74.69, 112.52 94.31 1.60 1
6 11/20/2018 04:48:18 -74.74, -79.94 85.64 11/20/2018 04:49:30 -74.77, -79.94 85.61 3.29 72
7 11/22/2018 22:43:38 -74.61, 11.53 85.17 11/22/2018 22:42:27 -74.63, 11.43 85.14 3.59 71
8 11/22/2018 23:33:07 74.73, 178.89 94.96 11/22/2018 23:33:05 74.71, 178.98 94.95 3.26 2
9 11/23/2018 00:22:34 -74.76, -13.56 85.00 11/23/2018 00:23:46 -74.75, -13.59 85.02 1.85 72
10 11/25/2018 18:17:54 -74.64, 77.90 84.57 11/25/2018 18:16:42 -74.66, 77.90 84.55 1.66 72
11 11/25/2018 19:07:22 74.71,-114.62 95.51 11/25/2018 19:07:21 74.68,-114.69 95.49 3.05 1
12 11/25/2018 19:56:50 -74.79, 52.81 84.40 11/25/2018 19:58:01 -74.77, 52.88 84.42 2.68 71
13 11/28/2018 13:52:09 -74.68, 144.26 84.01 11/28/2018 13:50:56 -74.68, 144.37 84.00 3.47 73
14 11/28/2018 14:41:36 74.69, -48.14 96.01 11/28/2018 14:41:35 74.70, -48.23 96.03 3.16 1




NCC Satellite Simultaneous Nadir Overpasses (SNOs) Prediction Service
